STARLINK-36335, 68015

Orbit data source: Space-Track

STARLINK-36335, 68015 is a payload satellite owned by SpaceX/Seattle (US) in SSO that was launched on Sun, 01 Mar 2026 UTC via an FALCON 9 launch vehicle from the Air Force Western Test Range (AFWTR). Payload-class satellites include a variety of spacecraft equipped with specific instruments for various scientific and technological missions. These include communications satellites like Starlink; space stations such as the ISS; scientific satellites like the Hubble; Earth observation satellites from companies like Planet Labs, Umbra, and HawkEye 360; GPS; miniature CubeSats for education and research; and military/defense satellites.

Loading next visibility...
Identifier
68015, 2026-040A
Orbit
SSO
Country
Flag of USUS
Related business
Manufacturer
SpaceX/Seattle
Mission
Operational Commercial Communications
Bus & Motor
STARLINK V2MO, Unknown motor
Mass
575 kg wet, ~530 kg dry
Launch date (UTC)
2026-03-01 (4 months ago)
Launch vehicle
FALCON 9
Launch site
Air Force Western Test Range (AFWTR)
Object type
Payload
Rocket body
Debris
Shape & HBR
Box + 2 Pan, 17.7 m
Radar Cross Section
36.964 m², Large (>1 m²)

Expand to show TLE details & history
Last TLE update: 11 hours ago

TLE from 11 hours ago
0 STARLINK-36335
1 68015U 26040A   26171.43148602  .00014341  00000-0  44575-3 0  9998
2 68015  97.2837 120.0060 0001832  91.8255 268.3198 15.33439004 17200
Epoch: 2026-06-20T10:21Z
TLE epoch observation values (Epoch: 2026-06-20T10:21:20.392Z)
Latitude
0.00004°
Longitude
56.02482°
Altitude
468.71 km
Speed
7.632 km/s
True Right ascension
08h 00m 01s
True Declination
0° 00' 00"
Sunlit
Object was in daylight at epoch
Visualization orbit readout
Latitude
Unknown
Longitude
Unknown
Altitude
Unknown
Speed
Unknown
Apparent Right ascension
Unknown
Apparent Declination
Unknown
Sunlit
N/A
Visualization observer readout
Local Sidereal Time
08:32:40
Azimuth
Unknown
Elevation
Unknown
Doppler factor
Unknown
Orbital elements
Apogee altitude
463.757 km
Perigee altitude
461.251 km
Semi-major axis
6,840.641 km
Eccentricity
0.00018
Inclination
97.2837°
RAAN
120.006°
Arg. of periapsis
91.8255°
True anomaly
268.29882°
Mean anomaly
268.3198°
Eccentric anomaly
268.30931°
Mean motion
3.83617 °/min
Orbital period
93.84 mins
BSTAR
0.00044575
Loading maneuver chart data...
Computing Atmospheric mass density...
Loading historical data...
Loading historical data...
Loading historical data...
Loading historical data...
Loading historical data...
Loading historical data...
Loading historical data...

Documentation

Showing up to 5 results
|